Flag for Montserrat Weather past 2 weeks in Brades, Montserrat

Now
77 °F

Passing clouds.


Feels Like: 79 °F
Forecast: 76 / 80 °F
Wind: 12 mph from East

Location: Vc Bird International Antigua Airport

Current Time: Mar 27, 2015 at 4:44:29 AM

Latest Report: Mar 27, 2015 at 4:00 AM


Visibility: N/A

Pressure: 30.04 "Hg

Humidity: 74%

Dew point: 68 °F

Location of BradesLocation

Historic Weather in Brades — Graph

°F

Brades temperature yesterday

Maximum temperature yesterday: 82 °F (at 11:00 AM)
Minimum temperature yesterday: 75 °F (at 3:00 AM)
Average temperature yesterday: 79 °F

Past Weeks' High & Low Weather Summary

 TemperatureHumidityPressure
High82 °F (Mar 12, 12:00 PM)88% (Mar 15, 11:00 PM)30.12 "Hg (Mar 15, 11:00 PM)
Low72 °F (Mar 15, 11:00 PM)58% (Mar 14, 9:00 AM)29.92 "Hg (Mar 16, 4:00 PM)
Average78 °F71%30.02 "Hg
* Reported Mar 12 3:00 AM — Mar 27 3:00 AM, Brades, Weather by CustomWeather, © 2015

Note: Actual official high and low records may vary slightly from our data, if they occured in-between our weather recording intervals... More about our weather records

Advertising

Brades weather history for previous 24 hours

 ConditionsComfort  
Time TempWeatherWind HumidityBarometerVisibility
3:00 AM
Fri, Mar 27
75 °FPassing clouds.13 mph78%30.04 "HgN/A
2:00 AM75 °FPassing clouds.7 mph83%30.04 "HgN/A
1:00 AM77 °FPassing clouds.14 mph74%30.07 "HgN/A
12:00 AM77 °FPassing clouds.12 mph74%30.07 "HgN/A
11:00 PM
Thu, Mar 26
77 °FPassing clouds.13 mph74%30.07 "HgN/A
10:00 PM77 °FPassing clouds.15 mph74%30.07 "HgN/A
9:00 PM77 °FPassing clouds.14 mph74%30.07 "HgN/A
8:00 PM77 °FPassing clouds.14 mph74%30.04 "HgN/A
7:00 PM77 °FPassing clouds.15 mph79%30.04 "HgN/A
6:00 PM77 °FScattered clouds.13 mph74%30.01 "HgN/A
5:00 PM79 °FScattered clouds.13 mph74%30.01 "HgN/A
4:00 PM81 °FScattered clouds.13 mph66%30.01 "HgN/A
3:00 PM82 °FScattered clouds.12 mph62%30.01 "HgN/A
2:00 PM82 °FPassing clouds.13 mph62%30.04 "HgN/A
1:00 PM82 °FScattered clouds.14 mph58%30.04 "HgN/A
12:00 PM82 °FPassing clouds.14 mph62%30.07 "HgN/A
11:00 AM82 °FPassing clouds.14 mph62%30.07 "HgN/A
10:00 AM81 °FPassing clouds.14 mph66%30.07 "HgN/A
9:00 AM81 °FScattered clouds.14 mph66%30.07 "HgN/A
8:00 AM79 °FPassing clouds.14 mph65%30.07 "HgN/A
7:00 AM77 °FPassing clouds.12 mph69%30.04 "HgN/A
6:00 AM75 °FPassing clouds.13 mph74%30.04 "HgN/A
5:00 AM75 °FPassing clouds.9 mph74%30.01 "HgN/A
4:00 AM75 °FPassing clouds.10 mph74%30.01 "HgN/A
Weather by CustomWeather, © 2015

See weather overviewHow to use our weather pages